K2MST Weather Reports


Display with metric or nautical units.
time (UTC)temp
F
wind
direction
speed
MPH
gust
MPH
rain 1hr
in
rain 24hr
in
rain mn
in
humidity
%
barometer
mb
20260503002037 44 315 2.0 4.0 0.00 0.10 0.01 63 1012.3
20260503001017 44 293 2.0 5.0 0.00 0.11 0.01 63 1012.3
20260503000058 45 315 2.0 5.0 0.00 0.12 0.01 62 1012.1
20260502235017 45 293 3.0 9.0 0.00 0.13 0.01 61 1012.0
20260502234037 45 315 3.0 6.0 0.00 0.13 0.01 60 1011.9
20260502233017 46 270 3.0 6.0 0.00 0.14 0.01 57 1011.9
20260502232017 47 293 4.0 7.0 0.00 0.14 0.01 57 1011.8
20260502231017 46 293 4.0 11.0 0.00 0.15 0.01 56 1011.8
20260502230017 46 293 6.0 10.0 0.00 0.15 0.01 55 1011.8
20260502225017 46 293 5.0 10.0 0.00 0.15 0.01 55 1011.8
20260502224017 46 293 4.0 9.0 0.00 0.16 0.01 55 1011.8
20260502223017 46 293 6.0 12.0 0.00 0.16 0.01 56 1011.7
20260502222017 46 315 5.0 11.0 0.00 0.16 0.01 56 1011.7
20260502221017 47 293 5.0 11.0 0.00 0.16 0.01 56 1011.6
20260502220019 46 293 6.0 14.0 0.00 0.16 0.01 56 1011.6
20260502215019 46 293 8.0 14.0 0.00 0.16 0.01 55 1011.6
20260502214019 46 293 6.0 12.0 0.00 0.16 0.01 56 1011.6
20260502213019 46 293 7.0 13.0 0.00 0.16 0.01 55 1011.6
20260502212019 47 293 5.0 11.0 0.00 0.16 0.01 55 1011.5
20260502211039 47 315 5.0 9.0 0.00 0.16 0.01 52 1011.5
20260502210018 47 315 5.0 11.0 0.00 0.16 0.01 51 1011.5
20260502205018 47 293 5.0 13.0 0.00 0.16 0.01 50 1011.5
20260502204018 47 293 7.0 14.0 0.00 0.16 0.01 49 1011.5
20260502203018 48 293 8.0 14.0 0.00 0.16 0.01 50 1011.4
20260502202018 48 315 5.0 11.0 0.00 0.16 0.01 51 1011.5
20260502201018 47 293 3.0 9.0 0.00 0.16 0.01 53 1011.6
20260502200018 47 338 4.0 10.0 0.00 0.16 0.01 54 1011.7
20260502195018 46 23 5.0 12.0 0.00 0.16 0.01 55 1011.8
20260502194018 46 23 6.0 12.0 0.00 0.16 0.01 57 1011.9
20260502193018 47 338 4.0 10.0 0.00 0.16 0.01 55 1011.9
20260502192018 47 0 5.0 11.0 0.00 0.16 0.01 56 1012.0
20260502191018 46 338 5.0 12.0 0.00 0.16 0.01 57 1012.1
20260502190018 46 338 5.0 11.0 0.00 0.16 0.01 57 1012.1
20260502185038 46 338 8.0 15.0 0.00 0.16 0.01 58 1012.1
20260502184018 46 338 7.0 13.0 0.00 0.16 0.01 57 1012.1
20260502183018 46 315 5.0 9.0 0.00 0.16 0.01 58 1012.1
20260502182018 46 338 5.0 12.0 0.00 0.16 0.01 57 1012.0
20260502181018 47 338 6.0 11.0 0.00 0.16 0.01 56 1011.9
20260502164038 47 248 4.0 10.0 0.00 0.16 0.01 50 1011.8
20260502163018 48 270 5.0 11.0 0.00 0.16 0.01 49 1011.9
20260502162018 48 293 4.0 10.0 0.00 0.16 0.01 47 1011.9
20260502161021 48 293 4.0 7.0 0.00 0.16 0.01 48 1011.9
20260502152038 47 293 4.0 11.0 0.00 0.16 0.01 54 1012.3
20260502151017 46 270 4.0 11.0 0.00 0.16 0.01 58 1012.4
20260502123039 41 293 7.0 14.0 0.00 0.16 0.01 73 1013.1
20260502122039 41 293 8.0 15.0 0.00 0.16 0.01 74 1013.1
20260502121019 41 293 7.0 13.0 0.00 0.16 0.01 76 1013.0
20260502115039 40 293 7.0 14.0 0.00 0.16 0.01 78 1012.9
20260502114019 41 293 5.0 11.0 0.00 0.16 0.01 81 1012.9
20260502113019 40 293 4.0 11.0 0.00 0.16 0.01 81 1012.7
20260502112018 40 293 3.0 9.0 0.00 0.16 0.01 82 1012.7
20260502111019 41 338 4.0 11.0 0.00 0.16 0.01 81 1012.6
20260502110019 41 293 4.0 9.0 0.00 0.16 0.01 84 1012.3
20260502105018 41 270 3.0 9.0 0.00 0.16 0.01 86 1012.2
20260502104018 40 248 2.0 7.0 0.00 0.16 0.01 86 1012.1
20260502103018 40 225 2.0 5.0 0.00 0.16 0.01 86 1012.0
20260502102018 41 248 2.0 7.0 0.00 0.16 0.01 85 1011.9
20260502101018 41 270 4.0 9.0 0.00 0.16 0.01 85 1011.8
20260502091018 40 248 1.0 3.0 0.00 0.16 0.01 90 1011.2
20260502071019 40 180 2.0 3.0 0.00 0.16 0.01 89 1011.0
20260502070017 40 158 1.0 2.0 0.00 0.16 0.01 89 1010.9
20260502065018 40 158 1.0 3.0 0.00 0.16 0.01 89 1011.0
20260502064018 40 180 2.0 4.0 0.00 0.16 0.01 89 1010.9
20260502063017 40 0.0 0.0 0.00 0.16 0.01 88 1010.8
20260502062017 40 0.0 0.0 0.00 0.16 0.01 89 1010.7
20260502061018 40 0.0 0.0 0.00 0.16 0.01 88 1010.7
20260502060017 40 0.0 1.0 0.00 0.16 0.01 88 1010.9
20260502055139 40 0.0 1.0 0.00 0.16 0.01 88 1011.1
20260502054017 40 0.0 1.0 0.00 0.16 0.01 88 1011.3
20260502053101 40 225 1.0 2.0 0.00 0.16 0.01 88 1011.4
20260502052017 40 0.0 2.0 0.00 0.16 0.01 88 1011.4
20260502051017 40 0.0 1.0 0.00 0.16 0.01 88 1011.3
20260502050017 40 225 1.0 2.0 0.01 0.16 0.01 88 1011.3
20260502045017 40 0.0 2.0 0.01 0.16 0.01 88 1011.3
20260502044017 40 203 1.0 2.0 0.01 0.16 0.01 88 1011.2
20260502043017 40 203 2.0 3.0 0.01 0.16 0.01 87 1011.3
20260502042017 40 203 1.0 3.0 0.01 0.16 0.01 87 1011.3
20260502041017 40 248 1.0 2.0 0.02 0.16 0.01 86 1011.3
20260502040018 40 0.0 1.0 0.01 0.15 0.15 87 1011.3
20260502035017 40 0.0 1.0 0.02 0.15 0.15 86 1011.2
20260502034017 40 23 1.0 3.0 0.03 0.15 0.15 86 1011.2
20260502033017 40 45 1.0 3.0 0.03 0.15 0.15 86 1011.2
20260502032017 40 45 2.0 5.0 0.04 0.15 0.15 86 1011.1
20260502031018 40 23 1.0 2.0 0.03 0.14 0.14 86 1011.2
20260502030017 40 23 1.0 3.0 0.04 0.14 0.14 86 1011.1
20260502025037 40 45 2.0 4.0 0.04 0.13 0.13 86 1011.2
20260502024017 40 23 2.0 4.0 0.03 0.12 0.12 86 1011.2
20260502023017 40 23 2.0 5.0 0.03 0.12 0.12 86 1011.3
20260502022017 40 23 5.0 8.0 0.03 0.11 0.11 85 1011.2
20260502021017 41 23 3.0 5.0 0.03 0.11 0.11 86 1011.2
20260502020017 41 338 5.0 10.0 0.02 0.10 0.10 85 1011.2
20260502015017 41 338 5.0 7.0 0.02 0.09 0.09 85 1011.2
20260502014019 42 338 2.0 5.0 0.02 0.09 0.09 85 1011.1
20260502013039 42 23 3.0 9.0 0.02 0.09 0.09 85 1011.0
20260502012039 42 23 2.0 5.0 0.02 0.08 0.08 85 1010.9
20260502011018 42 23 3.0 6.0 0.03 0.08 0.08 84 1010.7
20260502010019 42 23 3.0 6.0 0.04 0.08 0.08 83 1010.7
20260502005019 43 338 2.0 5.0 0.04 0.07 0.07 83 1010.7
20260502004019 43 315 1.0 3.0 0.04 0.07 0.07 83 1010.6
20260502003018 43 315 2.0 5.0 0.05 0.07 0.07 82 1010.5